"Pseudo-MPEC" for ZTF03VR

Created 2019 Jun 15 19:10:02 UT using Find_Orb

Click here for an explanation of pseudo-MPECs

 
 Astrometry: 
     ZTF03VR  C2019 06 02.40002018 30 22.33 -04 11 22.6    ~64Hq 20.77rUNEOCPI41
     ZTF03VR  C2019 06 02.45683018 30 21.94 -04 11 11.6    ~64Hq 21.30gUNEOCPI41
     ZTF03VR  C2019 06 04.29301018 30 14.43 -04 05 55.5    ~64Hq 20.65rUNEOCPI41
     ZTF03VR  C2019 06 04.35543118 30 13.77 -04 05 45.9    ~64Hq 20.84gUNEOCPI41
     ZTF03VR |C2019 06 08YJnoGsEx!2X$ig?g_VT^XTAoAstrometry'X!(Fa;pVdr)/J*u(b807
     ZTF03VR |C2019 06 08dJ\R/xb=7@KXiS7D5],*-bn%kXOOS276sJyLf=`BuPOftd#H1Bjg807
     ZTF03VR |C2019 06 08ttN`.Fv[Jua6k$v3b@!Dredacted;[N/$EyE?MbG3pGclickc+K8807
     ZTF03VR  C2019 06 12.37088 18 28 26.33 -03 56 15.8    ~6CAb 20.0 GVNEOCPI52
     ZTF03VR  C2019 06 12.38670 18 28 25.89 -03 56 17.0    ~6CAb 20.4 GVNEOCPI52
     ZTF03VR  C2019 06 12.42123 18 28 25.02 -03 56 17.7    ~6CAb       VNEOCPI52
     ZTF03VR  C2019 06 13.34935 18 28 06.26 -03 56 44.3    ~6D9M 19.7 GVNEOCPI52
     ZTF03VR  C2019 06 13.35754 18 28 06.09 -03 56 44.3    ~6D9M       VNEOCPI52
     ZTF03VR  C2019 06 13.36571 18 28 05.91 -03 56 44.9    ~6D9M       VNEOCPI52
     ZTF03VR  C2019 06 13.37500 18 28 05.59 -03 56 44.5    ~6D9M 20.2 GVNEOCPI52
     ZTF03VR KC2019 06 14ma^q8qK4lheresn6/CEghx2atcmDd1*6Iww-niY@bGf[;j^!1SDBH21
     ZTF03VR KC2019 06 14Yr_MqI^!_ax7IFZ\@B),$DbH]cZ==X9PPR#G;for;explanationH21
     ZTF03VR  C2019 06 14.32622 18 27 44.91 -03 57 33.8    ~6E8q       VNEOCPI52
     ZTF03VR  C2019 06 14.33654 18 27 44.70 -03 57 34.8    ~6E8q 21.1 GVNEOCPI52
     ZTF03VR  C2019 06 14.34913 18 27 44.36 -03 57 35.4    ~6E8q 21.1 GVNEOCPI52
     ZTF03VR  C2019 06 14.35775 18 27 44.09 -03 57 36.5    ~6E8q 19.8 GVNEOCPI52
     ZTF03VR  C2019 06 15.33131 18 27 21.64 -03 58 49.8    ~6F8b 21.9 GVNEOCPI52
     ZTF03VR  C2019 06 15.34086 18 27 21.37 -03 58 50.4    ~6F8b 21.8 GVNEOCPI52
     ZTF03VR  C2019 06 15.34782 18 27 21.16 -03 58 50.7    ~6F8b 20.1 GVNEOCPI52

Station data:
(807) Cerro Tololo Observatory, La Serena  (S30.169136 W70.805900)  Chile.
(H21) Astronomical Research Observatory, Westfield  (N39.483057 W87.968270)
   US/Illinois. 0.76-m f/3.0 astrograph + CCD.
(I41) Palomar Mountain--ZTF  (N33.357340 W116.859780)  US/California. 1.2-m
   f/2.44 Oschin Schmidt + CCD.
(I52) Steward Observatory, Mt. Lemmon Station  (N32.442547 W110.788920)
   US/Arizona.  Observers T. A. Pruyne, B. M. Africano, E. J. Christensen, G.
   A. Farneth, D. C. Fuls, A. R. Gibbs, A. D. Grauer, H. Groeller, J. A.
   Johnson, R. A. Kowalski, S. M. Larson, G. J. Leonard, R. L. Seaman, F. C.
   Shelly. 1.0-m reflector + CCD.

Orbital elements:  ZTF03VR
   Perihelion 2019 Jul 30.188799 +/- 0.679 TT =  4:31:52 (JD 2458694.688799)
Epoch 2019 Jun 15.0 TT = JDT 2458649.5   Earth MOID: 0.5726   AutoNEOCP
M 347.21276282 +/- 0.19             (J2000 ecliptic)
n   0.28297360 +/- 0.000285         Peri.  144.93644 +/- 0.51
a   2.29776406 +/- 0.00154          Node   148.61538 +/- 0.12
e   0.3126035 +/- 0.000486          Incl.    8.57303 +/- 0.012
P   3.48                   H 20.0   G  0.15   U  7.3  
q 1.57947492 +/- 0.00117    Q 3.01605321 +/- 0.00269
From 23 observations 2019 June 2-15; mean residual 0".36
Residuals in arcseconds: 
190602 I41  .13-  .14-    190612 I52  .09-  .50-    190614 I52  1.1-  .34+    
190602 I41  .01+  .04+    190612 I52  .44-  .65-    190614 I52  .05-  .00     
190604 I41  .10+  .06+    190613 I52  .31-  .31-    190614 I52  .05+  .19+    
190604 I41  .09-  .15+    190613 I52  .35+  .02+    190614 I52  .45-  .36-    
190608 807  .06+  .07-    190613 I52  .85+  .26-    190615 I52  .41+  .31-    
190608 807  .15+  .01+    190613 I52  .31-  .51+    190615 I52  .49+  .07-    
190608 807  .09+  .04+    190614 H21  .36-  .30+    190615 I52  .35+  .23+    
190612 I52  .66+  .44+    190614 H21  .14-  .05+    

Ephemerides (geocentric):
Date (UTC) HH   RA              Dec         delta   r     elong  mag " sig PA
---- -- -- --  -------------   -----------  ------ ------ -----  --- ---- ---
2019 06 15 19  18 27 10.424   -03 59 23.88  .63102 1.6152 156.9 20.9 .159  28
2019 06 15 20  18 27 09.404   -03 59 27.99  .63088 1.6151 156.9 20.9 .163  28
2019 06 15 21  18 27 08.383   -03 59 32.15  .63074 1.6150 156.9 20.9 .167  28
2019 06 15 22  18 27 07.359   -03 59 36.34  .63060 1.6150 156.9 20.9 .171  28
2019 06 15 23  18 27 06.334   -03 59 40.58  .63046 1.6149 157.0 20.8 .175  28
2019 06 16 00  18 27 05.306   -03 59 44.86  .63032 1.6149 157.0 20.8 .179  28
2019 06 16 01  18 27 04.276   -03 59 49.18  .63018 1.6148 157.0 20.8 .183  28
2019 06 16 02  18 27 03.244   -03 59 53.54  .63004 1.6147 157.0 20.8 .187  28
2019 06 16 03  18 27 02.210   -03 59 57.95  .62990 1.6147 157.1 20.8 .191  28
2019 06 16 04  18 27 01.174   -04 00 02.40  .62976 1.6146 157.1 20.8 .195  28
2019 06 16 05  18 27 00.136   -04 00 06.89  .62962 1.6145 157.1 20.8 .199  28
2019 06 16 06  18 26 59.095   -04 00 11.42  .62949 1.6145 157.1 20.8 .203  28
2019 06 16 07  18 26 58.053   -04 00 16.00  .62935 1.6144 157.2 20.8 .207  28
2019 06 16 08  18 26 57.008   -04 00 20.62  .62921 1.6143 157.2 20.8 .211  28
2019 06 16 09  18 26 55.962   -04 00 25.28  .62907 1.6143 157.2 20.8 .215  28
2019 06 16 10  18 26 54.913   -04 00 29.98  .62894 1.6142 157.2 20.8 .219  28
2019 06 16 11  18 26 53.862   -04 00 34.73  .62880 1.6141 157.3 20.8 .224  28
2019 06 16 12  18 26 52.810   -04 00 39.52  .62866 1.6141 157.3 20.8 .228  28
2019 06 16 13  18 26 51.755   -04 00 44.35  .62853 1.6140 157.3 20.8 .232  28
2019 06 16 14  18 26 50.698   -04 00 49.22  .62839 1.6139 157.3 20.8 .236  28
2019 06 16 15  18 26 49.639   -04 00 54.14  .62825 1.6139 157.4 20.8 .240  28
2019 06 16 16  18 26 48.578   -04 00 59.09  .62812 1.6138 157.4 20.8 .245  28
2019 06 16 17  18 26 47.515   -04 01 04.10  .62798 1.6138 157.4 20.8 .249  28
2019 06 16 18  18 26 46.450   -04 01 09.14  .62785 1.6137 157.4 20.8 .253  28
2019 06 16 19  18 26 45.383   -04 01 14.23  .62771 1.6136 157.4 20.8 .257  28
2019 06 16 20  18 26 44.314   -04 01 19.35  .62758 1.6136 157.5 20.8 .262  28
2019 06 16 21  18 26 43.243   -04 01 24.53  .62744 1.6135 157.5 20.8 .266  28
2019 06 16 22  18 26 42.170   -04 01 29.74  .62731 1.6134 157.5 20.8 .270  28
2019 06 16 23  18 26 41.095   -04 01 35.00  .62718 1.6134 157.5 20.8 .275  28
2019 06 17 00  18 26 40.018   -04 01 40.30  .62704 1.6133 157.6 20.8 .279  28
2019 06 17 01  18 26 38.939   -04 01 45.64  .62691 1.6132 157.6 20.8 .284  28
2019 06 17 02  18 26 37.858   -04 01 51.02  .62678 1.6132 157.6 20.8 .288  28
2019 06 17 03  18 26 36.775   -04 01 56.45  .62665 1.6131 157.6 20.8 .293  28
2019 06 17 04  18 26 35.690   -04 02 01.92  .62651 1.6130 157.7 20.8 .297  28
2019 06 17 05  18 26 34.603   -04 02 07.44  .62638 1.6130 157.7 20.8 .301  28
2019 06 17 06  18 26 33.514   -04 02 12.99  .62625 1.6129 157.7 20.8 .306  28
2019 06 17 07  18 26 32.423   -04 02 18.59  .62612 1.6129 157.7 20.8 .311  28
2019 06 17 08  18 26 31.331   -04 02 24.23  .62599 1.6128 157.8 20.8 .315  28
2019 06 17 09  18 26 30.236   -04 02 29.92  .62586 1.6127 157.8 20.8 .320  28
2019 06 17 10  18 26 29.139   -04 02 35.64  .62572 1.6127 157.8 20.8 .324  28
2019 06 17 11  18 26 28.041   -04 02 41.42  .62559 1.6126 157.8 20.8 .329  28
2019 06 17 12  18 26 26.940   -04 02 47.23  .62546 1.6125 157.8 20.8 .333  28
2019 06 17 13  18 26 25.838   -04 02 53.09  .62533 1.6125 157.9 20.8 .338  28
2019 06 17 14  18 26 24.733   -04 02 58.98  .62520 1.6124 157.9 20.8 .343  28
2019 06 17 15  18 26 23.627   -04 03 04.93  .62508 1.6124 157.9 20.8 .347  28
2019 06 17 16  18 26 22.519   -04 03 10.91  .62495 1.6123 157.9 20.8 .352  28
2019 06 17 17  18 26 21.409   -04 03 16.94  .62482 1.6122 158.0 20.8 .357  28
2019 06 17 18  18 26 20.297   -04 03 23.01  .62469 1.6122 158.0 20.8 .361  28